Flag for Nepal Weather past 2 weeks in Biratnagar, Nepal

Now
48 °F

Passing clouds.


Feels Like: 48 °F
Forecast: 53 / 83 °F
Wind: No wind

Location: Kathmandu Airport

Current Time: Mar 7, 2015 at 4:25:36 AM

Latest Report: Mar 7, 2015 at 1:35 AM


Visibility: 4 mi

Pressure: 30.07 "Hg

Humidity: 94%

Dew point: 46 °F

Location of BiratnagarLocation

Historic Weather in Biratnagar — Graph

°F

Biratnagar temperature yesterday

Maximum temperature yesterday: 70 °F (at 2:35 PM)
Minimum temperature yesterday: 43 °F (at 5:35 AM)
Average temperature yesterday: 56 °F

Past Weeks' High & Low Weather Summary

 TemperatureHumidityPressure
High72 °F (Feb 22, 1:35 PM)100% (Feb 20, 3:35 AM)30.33 "Hg (Feb 20, 3:35 AM)
Low43 °F (Mar 5, 5:35 AM)25% (Mar 6, 2:35 PM)29.89 "Hg (Mar 4, 3:35 PM)
Average57 °F77%30.07 "Hg
* Reported Feb 20 2:35 AM — Mar 7 1:35 AM, Biratnagar, Weather by CustomWeather, © 2015

Note: Actual official high and low records may vary slightly from our data, if they occured in-between our weather recording intervals... More about our weather records

Advertising

Biratnagar weather history for previous 24 hours

 ConditionsComfort  
Time TempWeatherWind HumidityBarometerVisibility
1:35 AM
Sat, Mar 7
48 °FPassing clouds.No wind94%30.07 "Hg4 mi
12:35 AM50 °FPassing clouds.3 mph88%30.09 "Hg4 mi
11:35 PM
Fri, Mar 6
52 °FPassing clouds.3 mph82%30.09 "Hg4 mi
10:35 PM54 °FPassing clouds.3 mph82%30.09 "Hg4 mi
9:35 PM54 °FPassing clouds.3 mph82%30.09 "Hg4 mi
8:35 PM55 °FPassing clouds.6 mph77%30.09 "Hg4 mi
7:35 PM57 °FPassing clouds.7 mph72%30.07 "Hg4 mi
6:35 PM59 °FPassing clouds.7 mph68%30.04 "Hg4 mi
5:35 PM64 °FPassing clouds.6 mph56%30.01 "Hg5 mi
4:35 PM66 °FPassing clouds.9 mph52%30.01 "HgN/A
3:35 PM68 °FPassing clouds.9 mph43%30.01 "HgN/A
2:35 PM70 °FScattered clouds.8 mph25%30.04 "HgN/A
1:35 PM68 °FPassing clouds.10 mph35%30.07 "HgN/A
12:35 PM68 °FPassing clouds.6 mph43%30.09 "HgN/A
11:35 AM66 °FPassing clouds.5 mph43%30.12 "Hg5 mi
10:35 AM61 °FPassing clouds.5 mph55%30.12 "Hg4 mi
9:35 AM57 °FPassing clouds.3 mph67%30.12 "Hg4 mi
8:35 AM52 °FFog.3 mph82%30.12 "Hg2 mi
7:35 AM46 °FFog.3 mph87%30.09 "Hg2 mi
6:35 AM45 °FFog.No wind93%30.09 "Hg2 mi
5:35 AM43 °FFog.3 mph100%30.07 "Hg3 mi
4:35 AM46 °FPassing clouds.3 mph87%30.07 "Hg4 mi
Weather by CustomWeather, © 2015

See weather overviewHow to use our weather pages